Regional Weather Roundup
Issued by NWS

Home | Current Version | Previous Version | Graphics & Text | Print | Product List | Glossary On
Versions: 1 2 3 4 5 6 7 8 9 10 11 12 13 14 15 16 17 18 19 20 21 22 23 24 25 26 27 28 29 30 31 32 33 34 35 36 37 38 39 40 41 42 43 44 45 46 47 48 49 50
956
ASUS43 KLSX 250907
RWRMO

WEATHER SUMMARY FOR MISSOURI
NATIONAL WEATHER SERVICE SPRINGFIELD MO
400 AM CDT TUE APR 25 2017

NOTE: "FAIR" INDICATES FEW OR NO CLOUDS BELOW 12,000 FEET WITH NO
       SIGNIFICANT WEATHER AND/OR OBSTRUCTIONS TO VISIBILITY.
       CURRENT SKY AND/OR WEATHER CONDITIONS ARE NOT AVAILABLE FOR
       CHILLICOTHE AND FARMINGTON.

MOZ001>031-035>038-043-044-053-054-251000-
...NORTHERN AND WESTERN MISSOURI...

CITY           SKY/WX    TMP DP  RH WIND       PRES   REMARKS
KANSAS CTY INT CLOUDY    62  46  55 S16       29.51F
KANSAS C DTWN  CLOUDY    63  45  51 S9        29.51F
LEE`S SUMMIT   CLOUDY    60  44  55 S12       29.54F
ST JOSEPH      PTCLDY    61  48  62 MISG      29.50F
CHILLICOTHE      N/A     56  38  50 SE6       29.57F
KIRKSVILLE     CLOUDY    48  32  53 SE7       29.60F

$$
MOZ066>068-077>081-088>096-101>105-251000-
...SOUTHWEST MISSOURI...

CITY           SKY/WX    TMP DP  RH WIND       PRES   REMARKS
SPRINGFIELD    CLOUDY    56  41  57 SE12      29.62F
JOPLIN         CLEAR     57  43  59 SE10      29.58F
BRANSON        CLEAR     52  41  66 CALM      29.66F

$$
MOZ032>034-039>042-045>050-055>058-069>072-251000-
...CENTRAL MISSOURI...

CITY           SKY/WX    TMP DP  RH WIND       PRES   REMARKS
COLUMBIA       PTCLDY    53  41  63 S8        29.64F
JEFFERSON CITY CLOUDY    55  41  59 E6        29.64F
ROLLA          CLOUDY    54  45  71 S9        29.66S
SEDALIA        CLOUDY    59  41  51 S10       29.60F
WHITEMAN AFB   MOCLDY    58  42  55 S10       29.57F
OSAGE BEACH    PTCLDY    56  42  59 S5        29.66S

$$
MOZ051-052-059>065-251000-
...EAST CENTRAL MISSOURI...

CITY           SKY/WX    TMP DP  RH WIND       PRES   REMARKS
ST LOUIS INTL  PTCLDY    59  46  62 S5        29.69S
SPIRIT OF STL  CLOUDY    52  48  86 CALM      29.68S
ST CHARLES     PTCLDY    50  44  80 NE5       29.68S

$$
MOZ072>076-082>087-097>100-106>115-251000-
...SOUTH CENTRAL AND SOUTHEAST MISSOURI...

CITY           SKY/WX    TMP DP  RH WIND       PRES   REMARKS
CAPE GIRARDEAU CLEAR     53  49  86 CALM      29.72F
FARMINGTON     CLOUDY    55  50  83 CALM      29.71F
POPLAR BLUFF   PTCLDY    54  53  97 CALM      29.72F
WEST PLAINS    PTCLDY    54  45  71 S5        29.70F

$$




USA.gov is the U.S. government's official web portal to all federal, state and local government web resources and services.